Hanford, WA
on Tuesday, February 5, 2013

Tuesday
Previous Day Next Day
Daily Summary
 ActualAverage (KMWH)Record (KMWH)
Temperature
Mean Temperature °F 33°F  
Max Temperature 54°F 40°F 48°F (1998)
Min Temperature 26°F 26°F -13°F (1985)
Degree Days
Heating Degree Days 25 32  
Month to date heating degree days 161  
Since 1 July heating degree days 3835  
Cooling Degree Days 0 0  
Month to date cooling degree days 0  
Year to date cooling degree days 0  
Moisture
Dew Point 31°F   
Average Humidity 78    
Maximum Humidity 100    
Minimum Humidity 49    
Precipitation
Precipitation 0.00 in 0.04 in 0.01 in (2008)
Month to date precipitation 0.19  
Year to date precipitation 1.33  
Wind
Wind Speed 7 mph   
Max Wind Speed 21 mph   
Max Gust Speed mph   
Visibility 9 miles   
Events Fog   

Key: T is trace of precipitation, MM is missing value
Source: NWS Daily Summary
Time(PST)TemperatureDew PointHumidity Pressure Visibility Wind DirectionWind SpeedGust SpeedPrecipitationEvents Conditions
12:50 AM 33.4°F 32.4°F 96% 29.95 in 12.0 miles WNW 5.8 mph - N/A   Overcast
1:50 AM 34.3°F 33.3°F 96% 29.95 in 12.0 miles West 5.8 mph - N/A   Overcast
2:50 AM 33.3°F 32.0°F 95% 29.93 in 12.0 miles WNW 4.6 mph - N/A   Overcast
3:50 AM 29.8°F 29.7°F 99% 29.91 in 10.0 miles NNW 3.5 mph - N/A   Overcast
4:50 AM 27.3°F 27.1°F 99% 29.91 in 5.0 miles SE 2.3 mph - N/A   Mostly Cloudy
5:50 AM 30.4°F 30.4°F 100% 29.90 in 4.0 miles SE 5.8 mph - N/A   Overcast
6:50 AM 26.1°F 26.1°F 100% 29.89 in 0.2 miles NNW 2.3 mph - N/A Fog Light Freezing Fog
7:50 AM 27.7°F 27.7°F 100% 29.89 in 0.1 miles SSE 5.8 mph - N/A Fog Light Freezing Fog
8:50 AM 31.8°F 31.8°F 100% 29.89 in 0.1 miles Calm Calm - N/A Fog Light Freezing Fog
9:50 AM 35.8°F 33.1°F 90% 29.90 in 1.0 miles East 3.5 mph - N/A   Mostly Cloudy
10:50 AM 36.0°F 34.0°F 93% 29.90 in 1.0 miles ENE 4.6 mph - N/A   Overcast
11:50 AM 37.4°F 30.9°F 77% 29.90 in 8.0 miles NNE 2.3 mph - N/A   Mostly Cloudy
12:50 PM 45.1°F 31.6°F 59% 29.89 in 12.0 miles NNE 6.9 mph - N/A   Scattered Clouds
1:50 PM 50.4°F 37.2°F 61% 29.87 in 15.0 miles SSE 6.9 mph - N/A   Scattered Clouds
2:50 PM 53.4°F 37.0°F 54% 29.85 in 15.0 miles South 10.4 mph - N/A   Partly Cloudy
3:50 PM 54.0°F 35.1°F 49% 29.85 in 15.0 miles SSE 20.7 mph - N/A   Partly Cloudy
4:50 PM 48.9°F 30.4°F 49% 29.85 in 15.0 miles SSW 12.7 mph - N/A   Partly Cloudy
5:50 PM 48.7°F 30.9°F 50% 29.85 in 15.0 miles SW 17.3 mph - N/A   Scattered Clouds
6:50 PM 45.5°F 31.6°F 58% 29.87 in 15.0 miles SSW 16.1 mph - N/A   Mostly Cloudy
10:50 PM 42.6°F 30.9°F 63% 29.93 in 15.0 miles SW 18.4 mph - N/A   Partly Cloudy
11:50 PM 43.2°F 25.0°F 49% 29.95 in 15.0 miles SW 17.3 mph - N/A   Partly Cloudy
Moon Phase
Feb. 05 Feb. 10 Feb. 17 Feb. 25 Mar. 04
Sunrise:07:16 AM (PST) Moon Rise:03:10 AM (PST)2/5
Sunset:05:09 PM (PST) Moon Set:12:24 PM (PST)2/5

Copyright © 2014 The Weather Underground, Inc.